Cam: Der Himmel über Mannheim, aktuelles Bild mit Wetterinformationen (Metar)



Der Himmel über Mannheim
Die WebCam zeigt nach Norden. (Feudenheim 3km, Vogelstang 6km, Frankfurt 70km)

Letzter SYNOP von MA-Vogelstang. Zeitformat[UTC].
Beispiel: 18hr entspricht 19:00 Uhr oder bei Sommerzeit 20 Uhr


Das aktuelle Wetter in Baden Wurttemberg, Neuostheim, Germany:

Baden Wurttemberg, Neuostheim, Germany stehen keine DATEN zur Verfügung.
METAR:

Das aktuelle Wetter in Mannheim, Seckenheim, Germany

0968: Neuester Wetterbericht von 19:55 Uhr. Der Wind war ruhig. Die Temperatur war 5 °C (41 °F) bei einem Taupunkt von 4 °C (39 °F). Der Luftdruck stand auf 1026 hPa (30.30 inHg). Die relative Luftfeuchtigkeit erreichte 93.2%.
METAR: 09682 171855Z 00000KT 05/04 Q1026

Mehr zum Thema Metar


Nach oben

HomeHome

Schnellzugriff auf diese Seite mit c.maw24.de oder cam.Mannheim-Wetter.Info


XHTML 1.0 Transitional